User: anonymous   Login
Location: Napier
(39.4830°S, 176.9170°E)
Time: 00:22:35
(UTC+13:00)
Language:

CZ-4B DEB - Orbit

View from above orbital plane
View from above orbital plane
View from above satellite
View from above satellite

Ground track
Ground track

The orbit data is extracted from the following two-line orbital elements,

1 27433U 02024D   20299.94998334 +.00000076 +00000-0 +66045-4 0  9996
2 27433 099.0839 297.7109 0014223 191.6773 168.4070 14.12432933950349
Epoch (UTC): 25 October 2020 22:47:58
Eccentricity: 0.0014223
inclination: 99.0839°
perigee height: 841 km
apogee height: 861 km
right ascension of ascending node: 297.7109°
argument of perigee: 191.6773°
revolutions per day: 14.12432933
mean anomaly at epoch: 168.4070°
orbit number at epoch: 95034

The dashed part of the orbit path shows where the satellite is in the earth's shadow,  

DLR